Location: Raitis
(47.2167°N, 11.3833°E)
Time: 05:33:08
(UTC+00:00)

Cosmos 2084 Rocket - Pass Details

Date: 03 March 2021
Orbit: 527 x 653 km, 62.8° (Epoch: 22 April)

Event Time Altitude Azimuth Distance (km) Brightness Sun altitude
Rises 18:23:53 0° 316° (NW) 2,809 7.8 -14.5°
Reaches altitude 10° 18:26:07 10° 312° (NW) 1,926 6.9 -14.9°
Maximum altitude 18:30:23 57° 235° (SW) 722 4.1 -15.6°
Enters shadow 18:34:47 10° 157° (SSE) 1,986 5.9 -16.4°
